Wind_Speed
32 32 31 31 31 30 30 29 30 30 29 27 25 23 22 23 25 27 28 30 31 32 33 35 37 38 40 42 45 47 49 51 52 53 55 57 59 61 63 65 66 67 66
33 31 31 33 33 34 34 34 34 35 34 31 29 27 26 27 28 30 32 33 35 36 37 39 41 42 44 46 48 50 52 54 55 57 58 59 60 62 63 63 62 62 61
35 32 33 35 35 36 37 37 37 38 37 35 34 32 32 33 32 33 35 36 38 39 41 43 45 47 49 50 51 52 54 57 58 59 59 59 59 60 59 58 54 51 49
37 35 35 36 37 38 39 39 39 39 40 39 38 36 37 37 38 39 41 42 43 44 46 47 48 49 51 53 54 55 57 58 59 60 60 59 58 56 54 51 48 44 43
39 38 37 37 39 40 41 42 42 42 42 42 40 40 41 41 42 44 46 48 49 50 50 51 52 53 54 54 56 57 58 59 59 60 60 59 57 54 52 48 46 43 43
40 40 39 40 41 42 44 45 44 44 44 44 43 43 44 44 47 49 50 52 52 53 53 53 54 54 54 55 57 58 59 59 59 59 59 58 56 54 51 49 48 47 46
36 37 38 39 41 43 44 45 45 45 45 44 44 44 46 47 49 51 52 54 54 53 52 52 53 54 54 56 58 58 59 59 59 58 58 57 56 54 53 53 52 52 52
32 33 35 36 37 39 41 42 42 43 43 43 44 45 47 48 50 52 52 52 51 51 51 52 53 53 55 57 57 58 58 58 58 58 57 57 56 56 56 56 57 58 58
31 31 32 32 32 34 36 38 39 41 41 43 44 45 46 48 49 50 50 50 50 52 52 53 54 56 56 57 56 57 57 58 58 58 58 57 57 57 59 60 62 63 64
28 28 28 29 30 32 34 36 38 39 40 41 42 44 45 47 48 50 51 52 53 53 53 54 55 55 56 55 56 56 57 57 58 58 58 58 59 60 61 63 64 66 67
26 27 28 29 30 31 33 36 37 38 39 41 43 45 48 50 51 52 52 53 54 53 53 53 54 54 55 55 56 56 57 58 58 59 59 60 61 62 63 64 65 65 65
28 29 30 31 32 33 35 36 37 39 41 43 46 48 50 52 53 53 54 54 53 53 52 52 53 54 55 55 56 56 57 58 59 59 60 61 62 63 63 62 61 59 57
31 32 34 35 36 37 38 40 41 42 45 47 48 50 53 53 53 54 54 53 52 51 52 52 53 53 54 55 56 57 58 58 59 60 61 61 61 60 58 56 53 50 48
34 35 36 38 39 40 41 43 45 47 49 51 51 52 52 52 53 53 52 51 51 51 52 52 52 53 54 55 56 57 58 59 59 60 60 59 57 53 49 45 43 41 40
37 39 41 42 43 45 47 48 49 51 51 52 51 50 51 53 53 52 51 50 50 51 51 51 52 53 54 55 56 57 58 58 58 57 55 52 48 44 41 39 37 35 33
44 45 47 48 49 50 51 51 51 51 49 50 50 51 53 53 52 50 48 49 50 50 50 51 52 54 55 56 56 57 57 56 54 51 47 44 42 40 38 35 33 30 27
50 51 52 51 51 51 51 50 49 48 48 50 52 52 52 51 49 47 48 48 49 49 50 51 53 54 55 55 55 55 54 51 48 45 42 41 40 37 34 31 28 25 22
52 51 49 48 48 49 48 48 47 47 49 51 53 53 51 48 46 46 47 47 48 49 50 52 53 54 54 53 52 50 47 45 43 41 39 37 34 32 29 25 22 19 17
47 45 44 44 45 45 44 44 45 48 51 54 54 50 46 44 44 45 45 46 47 49 51 51 51 51 51 49 46 43 41 40 38 37 34 30 28 25 21 17 14 12 11
43 42 41 40 41 41 41 43 46 50 53 52 48 43 42 42 42 43 44 46 47 49 49 49 49 47 45 41 39 37 36 35 32 30 27 24 19 15 11 8 6 5 3
39 38 37 36 37 38 41 45 49 51 49 43 40 39 39 40 41 42 44 45 47 47 48 47 44 41 38 36 35 34 32 28 26 24 21 17 12 7 4 2 1 2 4
34 33 32 33 34 38 43 47 46 43 39 36 36 36 37 39 40 42 43 44 45 46 44 42 38 35 33 32 31 29 27 24 22 17 14 9 6 3 3 5 6 7 8
28 28 29 30 35 40 43 41 37 33 32 33 34 35 37 39 41 42 43 44 43 41 38 35 33 31 29 28 27 25 24 22 18 13 9 6 7 8 9 10 10 11 11
24 26 28 31 36 36 33 30 29 29 29 31 33 35 38 40 41 42 42 41 38 34 32 30 29 27 25 24 22 21 21 18 13 9 8 9 10 11 12 13 13 13 13
23 25 28 29 27 24 22 23 24 25 28 31 34 37 39 40 41 40 38 34 30 27 26 25 25 23 21 20 18 17 15 12 8 7 9 11 13 14 15 15 15 14 13
19 19 18 17 16 17 18 20 23 26 30 33 35 38 39 40 38 34 30 26 23 22 22 22 21 18 16 17 15 14 12 9 8 10 12 14 15 16 17 17 16 15 14
Wind_Direction
271 271 272 272 273 275 277 280 282 283 280 276 274 279 284 291 296 299 299 298 295 293 294 295 294 294 295 297 299 300 301 302 301 299 297 294 292 289 286 284 282 280 278
272 270 269 269 270 272 274 277 280 282 280 279 277 282 288 295 297 298 299 299 295 292 293 294 295 294 295 296 299 299 300 300 300 298 297 294 292 290 289 286 283 281 278
272 269 267 268 269 270 271 274 278 282 284 285 286 290 294 297 297 299 299 300 298 296 295 295 296 296 296 297 298 299 299 299 298 298 297 295 293 292 290 288 285 282 278
271 268 267 268 269 269 271 275 279 283 286 288 290 293 296 298 299 300 300 300 300 300 299 299 299 298 297 297 298 298 298 298 298 297 297 295 294 292 291 288 285 281 277
270 269 269 268 268 270 273 276 279 283 286 288 290 293 296 297 298 299 301 301 300 301 301 301 301 300 299 298 298 298 298 298 297 296 295 294 292 291 288 286 283 280 278
268 269 269 269 269 272 275 277 279 283 285 287 289 293 294 295 298 300 301 302 301 301 302 302 302 300 299 298 298 297 297 296 295 295 293 292 290 288 286 284 283 281 279
270 270 271 271 271 273 276 278 280 282 284 286 289 291 293 296 299 300 301 302 302 302 302 303 302 300 298 297 296 296 295 295 294 293 292 290 289 287 286 285 283 282 281
272 273 273 274 274 274 275 277 279 281 283 285 288 290 294 297 299 300 302 304 304 303 303 304 303 300 298 296 296 295 295 294 293 292 291 290 288 287 286 285 284 283 282
274 277 277 277 276 276 276 278 280 281 283 286 289 293 297 300 301 302 305 306 306 305 304 303 301 299 298 297 296 296 295 295 294 293 292 290 289 288 287 286 285 284 283
275 277 277 278 278 278 278 279 281 282 285 288 292 295 299 301 301 304 306 306 306 305 303 302 300 299 298 298 297 296 295 295 294 294 293 292 291 289 289 288 287 286 285
276 276 277 278 279 279 280 282 285 287 289 291 294 297 299 301 303 304 305 305 304 303 302 301 300 299 299 298 297 297 296 296 295 295 294 293 292 291 291 290 289 288 287
279 279 279 280 282 283 286 287 289 290 292 293 296 298 301 302 302 302 304 304 304 302 302 301 300 300 299 299 298 298 297 297 297 296 295 295 294 294 293 292 291 289 288
281 282 282 284 286 287 288 290 291 293 294 295 298 299 300 301 301 302 303 303 303 302 301 301 301 301 300 300 299 299 299 299 298 298 298 297 297 296 294 293 291 289 288
284 285 286 286 287 288 289 290 292 293 295 296 297 298 299 300 300 301 301 302 302 302 302 302 302 302 301 301 302 302 302 301 301 301 300 299 298 297 296 293 292 290 290
284 285 285 286 287 289 290 291 292 293 295 294 295 297 298 298 298 298 300 302 303 303 303 303 303 304 304 304 304 304 304 303 303 302 301 300 299 298 296 294 292 292 291
283 285 286 287 288 289 289 290 291 293 292 291 292 295 296 295 296 297 300 302 303 304 305 305 306 306 307 307 307 307 306 305 304 303 302 301 299 299 297 294 292 292 290
282 284 285 285 286 286 287 288 289 290 288 288 289 290 291 293 296 299 301 303 305 306 307 308 309 309 309 309 309 308 307 306 305 304 303 301 300 298 296 294 291 290 288
280 281 281 281 281 282 284 286 285 285 284 286 286 288 291 294 298 301 303 305 307 309 310 311 311 311 312 312 311 310 308 308 307 306 305 304 301 298 295 292 287 287 287
277 277 277 278 278 280 282 281 280 280 281 283 284 287 293 298 301 303 306 308 310 311 312 313 313 314 314 314 312 311 311 311 311 310 309 308 304 300 295 290 284 284 286
274 275 276 276 277 278 278 276 275 276 277 279 284 291 298 301 304 307 309 311 312 313 313 314 316 316 315 315 314 315 316 316 316 316 315 314 312 306 299 291 281 278 272
273 274 274 274 274 273 271 270 270 271 275 283 293 299 303 306 308 310 311 312 313 314 315 316 317 317 317 318 319 320 321 322 322 322 321 321 322 320 317 313 149 135 136
271 271 271 270 268 265 262 263 267 274 284 295 301 305 307 309 311 312 313 314 315 316 318 319 320 320 321 323 324 326 328 330 332 333 334 341 355 28 74 96 107 117 123
268 267 266 263 261 260 261 266 276 290 299 304 307 309 311 313 314 314 315 316 317 318 320 321 323 324 325 327 329 331 334 338 343 352 6 32 64 82 92 100 107 113 117
262 261 260 258 257 260 269 283 295 303 306 310 312 314 315 315 316 316 317 318 319 320 322 324 326 327 329 331 334 336 339 344 353 16 47 72 83 91 97 102 106 110 111
254 254 255 258 266 277 292 301 307 311 314 316 317 317 317 317 318 319 320 321 322 323 325 326 328 330 332 336 339 342 348 357 19 53 78 87 93 97 101 104 106 108 107
254 256 262 276 293 304 311 316 319 321 321 320 320 320 320 320 322 323 325 327 328 330 330 330 333 336 339 342 347 353 5 27 61 84 93 97 100 102 104 105 106 107 105
Height
5865 5864 5863 5862 5861 5860 5858 5856 5854 5851 5849 5846 5844 5843 5841 5839 5838 5836 5834 5831 5828 5825 5822 5819 5815 5811 5807 5802 5798 5793 5788 5783 5778 5772 5766 5760 5754 5748 5742 5736 5731 5727 5723
5859 5858 5857 5856 5855 5854 5852 5850 5847 5843 5840 5838 5836 5834 5833 5831 5830 5828 5825 5823 5820 5816 5813 5809 5805 5801 5796 5792 5787 5781 5775 5769 5763 5757 5751 5745 5739 5731 5725 5720 5714 5710 5706
5851 5852 5850 5849 5848 5847 5845 5843 5840 5836 5833 5830 5828 5826 5825 5823 5821 5819 5816 5813 5810 5806 5803 5798 5793 5789 5784 5779 5773 5768 5761 5755 5748 5741 5735 5729 5723 5716 5709 5703 5698 5694 5691
5844 5844 5843 5842 5841 5839 5837 5835 5833 5829 5826 5823 5820 5818 5816 5814 5812 5809 5806 5802 5799 5795 5791 5786 5781 5776 5770 5765 5759 5753 5747 5740 5733 5726 5719 5713 5706 5700 5696 5690 5686 5682 5679
5835 5835 5835 5835 5833 5831 5829 5827 5825 5822 5819 5815 5812 5810 5807 5805 5802 5799 5795 5791 5787 5782 5778 5773 5768 5762 5756 5751 5745 5738 5732 5725 5718 5711 5704 5697 5691 5686 5682 5679 5675 5671 5668
5827 5827 5827 5827 5826 5824 5821 5819 5816 5814 5811 5807 5804 5801 5798 5795 5792 5788 5784 5779 5774 5770 5765 5760 5754 5748 5742 5736 5730 5723 5717 5710 5703 5696 5689 5683 5678 5672 5668 5665 5661 5659 5657
5818 5818 5818 5818 5817 5815 5812 5810 5807 5805 5802 5799 5796 5793 5789 5785 5782 5777 5773 5767 5762 5757 5752 5746 5741 5734 5728 5721 5715 5708 5701 5695 5689 5682 5676 5669 5664 5659 5655 5651 5647 5644 5642
5809 5809 5809 5808 5807 5805 5803 5800 5798 5795 5792 5789 5786 5783 5779 5775 5770 5766 5760 5755 5749 5744 5738 5733 5726 5720 5714 5707 5700 5693 5687 5680 5674 5668 5662 5656 5650 5645 5641 5637 5632 5628 5626
5801 5800 5799 5798 5797 5795 5793 5791 5788 5785 5783 5780 5776 5772 5768 5763 5759 5754 5748 5743 5737 5731 5725 5719 5712 5706 5699 5692 5685 5679 5672 5665 5659 5653 5647 5642 5636 5631 5626 5621 5615 5611 5607
5792 5791 5790 5789 5787 5785 5783 5781 5778 5775 5772 5769 5766 5761 5757 5752 5747 5741 5736 5730 5724 5718 5711 5705 5698 5692 5685 5678 5671 5664 5657 5651 5644 5638 5632 5626 5621 5615 5609 5603 5597 5591 5586
5784 5783 5782 5780 5778 5776 5774 5771 5768 5765 5762 5758 5754 5750 5746 5741 5735 5729 5724 5717 5711 5705 5698 5691 5685 5678 5671 5664 5657 5650 5643 5636 5629 5623 5617 5611 5604 5598 5591 5584 5578 5572 5566
5776 5774 5773 5771 5769 5767 5764 5761 5758 5755 5751 5748 5743 5739 5734 5729 5723 5717 5711 5705 5698 5692 5685 5679 5672 5665 5658 5651 5644 5636 5629 5622 5615 5608 5601 5594 5586 5579 5572 5565 5559 5553 5547
5767 5765 5764 5761 5759 5757 5754 5751 5748 5744 5740 5736 5732 5727 5722 5717 5711 5705 5699 5693 5686 5680 5673 5666 5659 5652 5645 5637 5630 5622 5614 5607 5599 5591 5584 5576 5569 5562 5555 5548 5543 5537 5533
5757 5756 5754 5751 5749 5747 5744 5740 5737 5733 5729 5725 5720 5715 5710 5705 5699 5693 5687 5681 5674 5667 5661 5654 5646 5639 5631 5624 5615 5607 5599 5591 5583 5575 5567 5559 5552 5546 5540 5534 5529 5525 5521
5748 5746 5743 5741 5739 5736 5733 5729 5725 5721 5717 5713 5708 5703 5698 5693 5687 5681 5675 5669 5662 5655 5649 5641 5633 5625 5618 5610 5601 5592 5584 5576 5568 5560 5551 5544 5538 5532 5527 5523 5518 5514 5511
5737 5734 5732 5730 5727 5724 5721 5717 5713 5709 5705 5700 5695 5691 5686 5681 5675 5669 5663 5657 5650 5643 5636 5628 5620 5611 5604 5595 5586 5577 5568 5560 5553 5545 5538 5532 5526 5521 5516 5512 5508 5505 5503
5724 5722 5720 5718 5715 5712 5709 5705 5702 5698 5693 5688 5684 5679 5674 5669 5663 5657 5651 5645 5638 5631 5623 5615 5606 5597 5589 5581 5572 5563 5554 5547 5539 5533 5526 5520 5515 5510 5506 5502 5499 5498 5496
5711 5710 5708 5706 5703 5700 5697 5694 5691 5687 5682 5678 5673 5668 5662 5657 5652 5646 5640 5633 5626 5618 5610 5602 5593 5584 5576 5568 5559 5550 5542 5535 5528 5522 5515 5510 5504 5499 5496 5494 5493 5492 5491
5698 5697 5696 5694 5692 5689 5687 5684 5681 5677 5672 5668 5662 5656 5651 5646 5640 5634 5628 5621 5613 5605 5598 5590 5582 5573 5564 5556 5548 5540 5532 5525 5518 5512 5506 5500 5495 5491 5489 5488 5487 5487 5487
5685 5685 5684 5683 5681 5679 5677 5674 5670 5667 5662 5657 5651 5646 5641 5635 5629 5623 5616 5609 5601 5594 5587 5579 5571 5563 5555 5547 5539 5532 5524 5517 5510 5504 5498 5493 5489 5487 5485 5484 5485 5485 5485
5674 5674 5673 5672 5671 5669 5667 5664 5660 5656 5651 5645 5640 5636 5630 5624 5618 5612 5605 5598 5591 5584 5577 5570 5562 5554 5547 5539 5532 5524 5517 5511 5505 5499 5494 5490 5487 5485 5484 5483 5484 5485 5485
5664 5663 5663 5662 5662 5660 5657 5653 5649 5645 5640 5635 5631 5626 5620 5614 5608 5601 5594 5587 5580 5573 5566 5560 5553 5546 5539 5532 5525 5519 5512 5506 5500 5496 5491 5488 5486 5485 5484 5485 5485 5486 5488
5655 5655 5655 5655 5654 5651 5648 5645 5640 5636 5632 5627 5622 5617 5611 5605 5598 5591 5585 5578 5571 5564 5558 5551 5545 5539 5533 5527 5521 5515 5509 5503 5498 5494 5491 5489 5487 5487 5487 5487 5488 5490 5491
5648 5648 5648 5647 5646 5643 5640 5636 5633 5629 5625 5620 5614 5608 5602 5595 5589 5582 5575 5569 5562 5556 5551 5545 5539 5534 5528 5523 5518 5513 5508 5503 5498 5495 5493 5491 5490 5490 5490 5491 5493 5494 5496
5642 5643 5643 5641 5639 5636 5634 5631 5627 5623 5618 5613 5607 5600 5594 5587 5580 5573 5566 5560 5555 5550 5545 5540 5535 5530 5525 5520 5516 5511 5507 5502 5499 5497 5495 5494 5494 5494 5495 5496 5498 5499 5501
5639 5638 5637 5636 5635 5633 5630 5626 5622 5617 5612 5606 5600 5593 5586 5578 5571 5565 5560 5554 5550 5545 5541 5536 5531 5527 5523 5518 5514 5510 5507 5503 5501 5500 5499 5498 5499 5499 5500 5502 5503 5504 5505